SCP
0 0 0 0 0 0 0 0 0 0 0 0 0 0 0 -0 0 0 0 -0 0 0 0 1 1 1 0 0 0 1 1 1 0 0 0 0 0 0 0 0 0 0 0 0
0 0 0 0 0 0 0 0 0 0 0 0 0 0 0 -0 0 0 -0 -0 -0 -0 0 0 1 1 1 0 0 2 2 1 1 1 0 0 0 0 0 0 0 0 0 0
0 0 0 0 0 0 0 0 0 0 0 0 0 0 0 0 0 0 0 -0 0 -0 0 0 0 0 0 0 0 4 3 2 1 1 0 0 0 0 0 0 0 0 0 0
0 0 0 0 0 0 0 0 0 0 0 0 0 0 0 -0 0 0 0 0 0 0 -0 0 0 0 0 0 1 4 4 3 2 1 1 0 0 0 0 0 0 0 0 0
0 0 0 0 0 0 0 0 0 0 0 0 -0 -0 -0 0 -0 -0 -0 0 0 0 0 0 0 0 1 2 1 3 4 4 3 2 1 0 0 0 0 0 0 0 0 0
0 0 0 0 0 0 0 0 0 0 0 0 -0 -0 -0 -0 -0 -0 0 0 0 0 0 -0 0 0 0 1 3 2 2 4 4 2 1 0 0 0 0 0 0 0 0 0
0 0 0 0 0 0 0 0 0 0 0 0 -0 -0 -0 -0 -0 -0 -0 -0 -0 -0 0 -0 -0 -0 0 0 0 0 2 2 3 3 1 0 0 0 0 0 0 0 0 0
0 0 0 0 0 0 0 0 0 0 0 0 0 0 -0 -0 -0 -0 -0 -0 -0 -0 -0 -0 -0 -0 -0 0 0 0 1 3 2 0 1 0 0 0 0 0 0 0 0 0
0 0 0 0 -0 -0 0 0 0 0 0 0 0 0 -0 -0 -0 -0 -0 -0 -0 -0 -0 -0 -0 -0 -0 -0 -0 0 -0 -0 1 0 0 0 0 0 0 0 0 0 0 0
0 0 0 0 0 0 0 0 0 0 0 0 0 0 0 0 0 0 0 0 0 0 0 0 0 0 0 0 0 0 0 0 0 0 0 0 0 0 0 0 0 0 0 0
0 0 0 0 0 0 0 0 0 0 0 0 0 0 0 0 0 0 0 0 0 0 0 0 0 0 0 0 0 0 0 0 0 0 0 0 0 0 0 0 0 0 0 0
0 0 0 0 0 0 0 0 0 0 0 0 0 0 0 0 0 0 0 0 0 0 0 0 0 0 0 0 0 0 0 0 0 0 0 0 0 0 0 0 0 0 0 0
0 0 0 0 0 0 0 0 0 0 0 0 0 0 0 0 0 0 0 0 0 0 0 0 0 0 0 0 0 0 0 0 0 0 0 0 0 0 0 0 0 0 0 0
0 0 0 0 -0 -0 -0 -0 -0 -0 0 0 0 0 0 0 0 0 0 0 0 0 0 0 0 0 0 0 0 0 0 0 0 0 0 0 0 0 0 0 0 0 0 0
0 0 0 -0 -0 -0 0 0 0 0 0 0 0 0 0 0 0 0 0 0 0 0 0 0 0 0 0 0 0 0 0 0 0 0 0 0 0 0 0 0 0 0 0 0
-0 0 0 0 0 0 0 0 0 0 0 0 0 0 0 0 0 0 0 0 0 0 0 0 0 0 0 0 0 0 0 0 0 0 0 0 0 0 0 0 0 0 0 0
0 -0 -0 -0 0 0 0 0 0 0 0 0 0 0 0 0 0 0 -0 -0 -0 0 0 0 0 0 0 0 0 0 0 0 0 0 0 0 0 0 0 0 0 0 0 0
0 0 0 0 0 0 0 -0 -0 0 0 0 0 0 0 0 -0 -0 0 0 0 0 -0 -0 0 0 0 0 0 0 0 0 0 0 0 0 0 0 0 0 0 0 0 0
-0 0 -0 0 -0 -0 -0 0 0 0 0 0 0 0 0 0 0 0 0 -0 0 -0 -0 0 0 0 0 0 0 0 0 0 0 0 0 0 0 0 0 0 0 0 0 0
0 -0 -0 -0 -0 -0 -0 -0 0 0 0 0 0 0 0 -0 0 0 0 0 0 0 0 0 0 0 0 0 0 0 0 0 0 0 0 0 0 0 0 0 0 0 0 0
-0 -0 -0 -0 -0 -0 -0 -0 0 0 0 0 -0 0 0 0 0 0 0 -0 -0 -0 -0 0 0 0 0 0 0 0 0 0 0 0 0 0 0 0 0 0 0 0 0 0
-0 -0 -0 -0 -0 -0 -0 -0 -0 0 0 0 0 0 0 0 0 0 0 0 0 0 0 0 -0 0 0 0 0 0 0 0 0 0 0 0 0 0 0 0 0 0 0 0
-0 -0 -0 -0 -0 0 0 -0 -0 -0 -0 -0 0 0 0 0 0 0 0 0 0 0 0 -0 -0 -0 -0 0 0 0 0 0 0 0 0 0 0 0 0 0 0 0 0 0
0 -0 -0 -0 -0 -0 -0 -0 -0 -0 -0 -0 -0 -0 -0 -0 -0 0 0 0 0 0 0 0 0 -0 -0 0 -0 0 -0 0 0 0 0 0 0 0 0 0 0 0 0 0
0 0 -0 -0 -0 0 -0 -0 0 -0 -0 -0 -0 -0 -0 -0 -0 -0 -0 -0 -0 -0 0 0 0 0 0 0 0 0 0 0 0 0 0 0 0 0 0 0 0 0 0 -0
0 0 0 0 0 0 0 0 -0 0 0 -0 -0 -0 -0 -0 -0 -0 -0 -0 -0 0 0 0 0 0 0 0 0 0 0 0 -0 -0 -0 -0 -0 -0 -0 0 0 -0 -0 -0
0 0 0 0 0 0 0 0 -0 -0 0 0 -0 -0 -0 -0 -0 -0 -0 -0 -0 0 0 0 0 0 0 0 0 0 0 -0 0 0 -0 -0 -0 -0 -0 -0 -0 -0 -0 -0
Wind_Speed_500mb
10 14 14 18 9 16 10 15 13 13 15 4 13 17 28 33 50 59 80 80 83 69 56 84 85 93 106 117 120 115 117 117 108 87 83 80 80 75 69 74 78 75 74 71
12 15 16 11 16 22 27 25 14 13 12 5 24 31 34 34 58 59 66 73 88 85 69 57 92 103 103 110 119 117 117 120 106 92 80 72 67 64 71 74 74 73 73 75
11 11 14 18 21 22 4 14 8 4 8 15 27 37 40 43 55 62 70 78 79 85 87 68 60 81 104 110 120 118 121 122 109 92 79 68 62 64 71 73 74 77 76 79
7 6 10 8 10 7 16 13 14 8 6 10 22 49 44 47 68 78 84 85 81 74 78 81 64 55 80 87 114 120 119 121 110 96 82 75 72 68 71 75 77 76 75 78
4 6 13 8 14 11 8 3 8 9 10 19 28 31 4 51 60 66 72 76 78 74 67 69 64 47 47 66 91 111 123 126 121 104 91 78 69 72 66 76 77 79 78 82
0 6 10 4 15 38 16 8 17 8 20 28 32 19 6 54 59 59 66 69 74 72 64 59 70 58 42 30 56 87 114 129 127 109 94 86 82 54 50 84 83 85 82 81
8 10 8 9 26 36 10 11 36 19 35 34 12 23 53 58 58 60 56 64 68 72 64 53 55 64 57 39 46 47 70 88 106 119 99 75 58 64 79 84 86 82 81 83
1 4 14 21 11 6 21 55 33 37 55 53 56 62 64 61 63 66 66 60 63 67 68 62 51 47 51 47 46 53 55 58 109 124 98 85 76 72 82 79 84 82 86 91
6 10 12 9 19 42 28 22 47 61 68 72 73 72 74 72 64 64 62 61 56 57 62 52 43 37 39 35 33 53 68 56 86 107 78 74 69 72 79 84 85 84 90 92
10 11 23 63 73 42 35 70 61 75 74 69 72 69 70 73 70 69 67 70 63 49 47 46 30 27 29 32 39 38 34 52 91 97 67 74 72 72 81 83 83 83 93 95
13 32 45 36 33 70 81 73 80 72 67 63 59 73 71 70 66 67 72 70 63 54 45 47 37 26 25 26 27 16 19 40 27 44 62 62 63 64 64 66 65 74 86 86
9 34 39 62 71 76 82 75 69 73 78 69 66 67 66 67 61 61 63 61 60 55 49 44 33 32 18 18 22 25 24 37 39 34 48 56 60 62 64 55 49 55 42 68
41 59 71 80 79 74 68 78 87 81 87 83 76 70 66 66 53 56 67 64 59 55 49 51 47 40 31 32 24 20 22 24 37 46 48 56 60 62 61 58 58 64 56 51
54 55 61 64 65 84 93 95 89 86 83 79 79 79 77 71 69 68 77 62 60 56 53 43 48 39 41 33 30 19 17 23 29 48 53 56 56 56 57 57 59 58 49 52
59 58 70 83 86 87 83 83 77 76 69 66 68 66 65 67 74 76 63 62 58 58 58 50 43 51 36 27 33 34 26 30 38 45 52 52 48 55 51 53 51 58 61 65
75 72 74 64 70 78 80 84 75 74 67 64 60 61 64 66 62 59 57 53 52 57 54 57 42 37 41 37 34 35 35 34 40 42 48 52 53 47 46 53 53 59 66 65
62 61 68 68 71 68 71 74 74 68 57 50 53 55 52 57 55 56 52 44 46 56 55 55 35 32 34 31 34 42 39 32 24 29 38 43 46 46 46 48 53 62 67 73
46 48 49 51 59 55 60 60 60 43 39 39 42 48 52 45 38 36 23 26 40 46 38 33 31 36 36 32 34 41 41 34 28 30 40 50 48 46 46 48 55 58 59 53
41 38 37 38 42 47 53 52 45 43 41 37 35 39 33 28 31 30 18 23 40 35 28 33 19 18 21 27 24 22 38 28 32 37 32 40 39 40 39 39 39 45 49 43
30 29 29 41 50 56 61 57 46 40 35 31 26 30 33 31 25 18 14 11 16 17 15 24 23 16 22 13 13 22 25 19 30 33 23 25 32 35 31 32 49 48 44 41
21 21 28 35 45 56 61 65 60 49 42 31 29 32 29 30 33 27 28 28 24 26 19 6 6 16 13 4 8 10 10 14 17 15 22 26 29 28 32 40 46 44 36 38
29 29 33 40 41 41 47 52 58 59 52 44 37 36 33 28 24 31 36 41 41 32 25 26 27 26 22 18 13 9 6 7 5 5 14 22 24 27 28 40 50 44 42 37
29 33 36 37 37 34 30 38 48 55 54 55 54 50 42 32 26 25 29 35 33 32 32 36 26 21 20 16 13 9 4 2 2 7 9 12 21 30 37 46 47 47 41 42
29 29 30 33 33 31 37 29 35 43 50 49 51 57 60 49 41 39 34 26 28 29 31 32 30 26 19 18 13 11 9 4 4 4 9 20 27 28 37 53 49 49 48 41
28 32 33 31 31 32 31 32 26 27 34 43 49 47 50 58 63 58 55 56 55 58 60 57 54 51 50 47 43 37 32 26 22 17 15 13 12 18 24 33 43 39 33 50
31 34 26 20 24 20 21 24 25 28 24 26 32 42 42 42 46 48 51 52 51 50 48 47 47 45 43 43 42 42 41 38 33 27 19 14 14 14 21 26 27 26 40 21
18 17 19 11 12 18 18 12 15 18 22 22 20 19 28 38 35 37 38 36 34 35 37 37 36 34 32 30 26 26 26 26 27 28 29 29 27 27 29 27 19 9 13 26
Wind_Direction_500mb
249 264 282 276 298 319 254 228 200 253 242 0 330 315 318 349 354 359 2 359 359 350 300 262 234 232 225 228 229 226 223 224 229 235 229 228 226 228 231 219 218 219 220 220
266 267 262 260 294 276 274 270 252 259 257 13 322 332 342 2 357 354 356 353 356 353 352 299 262 237 230 227 228 228 225 225 229 231 226 223 222 225 219 215 219 221 222 223
259 223 307 285 228 237 293 41 331 350 343 344 345 341 336 1 358 350 349 351 350 354 355 348 296 271 245 228 228 228 227 226 229 228 224 218 218 219 217 218 220 222 225 228
261 243 237 258 48 47 103 53 21 4 358 334 312 313 314 6 358 355 351 349 347 345 346 352 339 288 268 250 233 228 229 227 227 226 222 217 210 211 217 218 222 224 228 229
255 241 294 4 15 358 359 82 7 335 339 328 322 314 169 342 350 349 347 344 341 337 338 334 346 336 271 257 247 237 228 228 226 222 214 212 211 207 218 227 225 225 227 228
257 262 253 1 337 323 300 234 357 341 330 330 342 350 310 336 342 340 345 345 339 334 329 325 320 336 334 294 257 245 246 233 225 214 210 208 203 198 209 229 226 224 223 225
214 243 283 323 10 334 222 306 329 323 326 316 311 299 314 331 336 341 331 342 338 330 329 332 325 319 323 308 288 297 251 240 232 211 205 202 197 211 219 218 223 222 222 225
58 273 277 21 15 63 294 305 318 328 328 322 316 314 314 320 326 328 328 318 332 334 325 325 322 322 309 305 291 300 263 270 236 224 195 197 204 211 216 216 218 217 219 216
210 242 288 340 307 312 311 316 312 315 312 310 308 306 306 308 311 319 321 320 315 323 330 317 323 316 316 309 312 283 285 280 249 202 193 200 205 210 213 214 215 216 215 214
2 271 307 307 305 307 300 311 305 306 303 299 295 301 306 304 304 307 312 313 319 307 319 326 322 338 0 334 294 288 292 283 205 214 199 203 206 212 214 208 208 211 212 208
269 289 300 293 301 303 309 306 305 309 305 294 295 303 305 306 307 306 308 307 311 312 299 303 305 336 343 2 12 24 15 320 193 183 204 201 204 209 214 213 212 215 216 214
248 291 289 290 298 299 298 302 308 309 309 297 293 296 303 304 304 308 308 307 306 298 299 289 288 286 321 339 9 1 37 312 294 230 208 199 198 199 208 213 216 222 229 234
280 293 294 296 302 303 298 299 297 294 297 293 292 290 295 295 302 306 312 306 310 309 295 287 279 282 280 283 318 342 345 311 282 239 221 211 201 200 204 205 216 221 226 222
306 307 297 302 298 299 301 303 301 294 290 290 286 287 289 291 291 297 301 294 303 304 306 287 276 284 291 286 282 255 264 276 267 256 230 215 207 205 207 203 195 199 211 209
299 300 296 299 302 304 308 302 294 295 291 287 285 285 286 285 287 291 287 278 287 296 299 297 278 268 264 266 262 261 243 247 246 241 236 228 221 212 206 202 197 198 193 196
304 304 306 304 303 309 310 310 305 294 294 299 294 292 287 289 290 291 284 274 275 288 292 294 286 260 251 244 248 249 235 225 233 239 237 230 221 210 210 205 201 200 194 193
306 301 308 305 311 324 326 329 325 316 306 301 308 310 306 296 288 294 292 269 268 279 281 290 279 254 252 248 255 249 235 229 232 239 234 229 222 217 213 210 203 202 200 196
332 329 332 333 327 333 336 333 347 341 326 318 318 309 308 314 313 310 312 299 286 286 262 278 264 252 246 242 253 247 240 232 242 236 231 224 218 214 209 210 209 207 201 194
354 348 353 358 358 355 355 350 344 354 1 354 347 353 327 300 300 305 294 303 292 282 266 261 261 235 231 256 243 243 233 231 239 217 225 226 221 214 213 213 207 198 196 197
11 23 38 29 22 15 10 8 1 0 353 349 358 15 20 14 6 4 7 25 13 346 294 255 249 241 272 244 232 234 236 239 231 213 213 219 209 208 215 211 206 204 204 208
16 13 13 9 7 10 14 14 22 19 18 17 13 16 23 31 30 24 29 29 21 16 4 329 242 204 150 143 229 170 204 223 196 210 202 205 215 222 219 220 213 209 211 197
356 359 351 353 356 4 11 18 23 31 33 33 31 28 27 29 34 39 37 34 42 41 51 61 69 70 74 87 104 101 63 140 162 237 244 231 209 214 223 220 206 196 185 178
348 355 2 9 2 359 359 19 30 31 30 31 33 31 31 34 40 41 42 37 39 45 62 67 73 86 80 91 79 72 96 47 348 230 235 232 235 227 222 208 200 193 181 192
351 3 4 7 12 10 7 11 22 32 35 34 36 40 43 55 59 61 67 61 60 65 68 65 66 73 68 77 69 64 59 59 22 333 283 273 251 234 213 202 191 185 187 199
331 331 335 341 347 357 355 9 10 21 32 38 41 45 49 54 61 70 73 74 75 78 78 77 76 76 78 79 79 81 84 86 87 82 90 106 167 189 190 197 196 198 198 186
327 330 335 340 340 341 346 6 19 16 11 24 39 49 56 61 63 66 70 71 71 69 68 67 66 65 65 66 67 66 67 69 72 75 78 98 115 144 175 177 192 195 164 191
316 327 343 344 346 344 334 349 11 18 25 22 18 37 61 65 69 70 70 66 58 51 45 39 35 33 36 38 39 47 56 56 56 58 66 78 96 111 129 144 154 183 264 283
Wind_Speed_850mb
10 14 14 18 9 16 10 15 13 13 15 4 13 17 28 33 50 59 80 80 83 69 56 84 85 93 106 117 120 115 117 117 108 87 83 80 80 75 69 74 78 75 74 71
12 15 16 11 16 22 27 25 14 13 12 5 24 31 34 34 58 59 66 73 88 85 69 57 92 103 103 110 119 117 117 120 106 92 80 72 67 64 71 74 74 73 73 75
11 11 14 18 21 22 4 14 8 4 8 15 27 37 40 43 55 62 70 78 79 85 87 68 60 81 104 110 120 118 121 122 109 92 79 68 62 64 71 73 74 77 76 79
7 6 10 8 10 7 16 13 14 8 6 10 22 49 44 47 68 78 84 85 81 74 78 81 64 55 80 87 114 120 119 121 110 96 82 75 72 68 71 75 77 76 75 78
4 6 13 8 14 11 8 3 8 9 10 19 28 31 4 51 60 66 72 76 78 74 67 69 64 47 47 66 91 111 123 126 121 104 91 78 69 72 66 76 77 79 78 82
0 6 10 4 15 38 16 8 17 8 20 28 32 19 6 54 59 59 66 69 74 72 64 59 70 58 42 30 56 87 114 129 127 109 94 86 82 54 50 84 83 85 82 81
8 10 8 9 26 36 10 11 36 19 35 34 12 23 53 58 58 60 56 64 68 72 64 53 55 64 57 39 46 47 70 88 106 119 99 75 58 64 79 84 86 82 81 83
1 4 14 21 11 6 21 55 33 37 55 53 56 62 64 61 63 66 66 60 63 67 68 62 51 47 51 47 46 53 55 58 109 124 98 85 76 72 82 79 84 82 86 91
6 10 12 9 19 42 28 22 47 61 68 72 73 72 74 72 64 64 62 61 56 57 62 52 43 37 39 35 33 53 68 56 86 107 78 74 69 72 79 84 85 84 90 92
10 11 23 63 73 42 35 70 61 75 74 69 72 69 70 73 70 69 67 70 63 49 47 46 30 27 29 32 39 38 34 52 91 97 67 74 72 72 81 83 83 83 93 95
13 32 45 36 33 70 81 73 80 72 67 63 59 73 71 70 66 67 72 70 63 54 45 47 37 26 25 26 27 16 19 40 27 44 62 62 63 64 64 66 65 74 86 86
9 34 39 62 71 76 82 75 69 73 78 69 66 67 66 67 61 61 63 61 60 55 49 44 33 32 18 18 22 25 24 37 39 34 48 56 60 62 64 55 49 55 42 68
41 59 71 80 79 74 68 78 87 81 87 83 76 70 66 66 53 56 67 64 59 55 49 51 47 40 31 32 24 20 22 24 37 46 48 56 60 62 61 58 58 64 56 51
54 55 61 64 65 84 93 95 89 86 83 79 79 79 77 71 69 68 77 62 60 56 53 43 48 39 41 33 30 19 17 23 29 48 53 56 56 56 57 57 59 58 49 52
59 58 70 83 86 87 83 83 77 76 69 66 68 66 65 67 74 76 63 62 58 58 58 50 43 51 36 27 33 34 26 30 38 45 52 52 48 55 51 53 51 58 61 65
75 72 74 64 70 78 80 84 75 74 67 64 60 61 64 66 62 59 57 53 52 57 54 57 42 37 41 37 34 35 35 34 40 42 48 52 53 47 46 53 53 59 66 65
62 61 68 68 71 68 71 74 74 68 57 50 53 55 52 57 55 56 52 44 46 56 55 55 35 32 34 31 34 42 39 32 24 29 38 43 46 46 46 48 53 62 67 73
46 48 49 51 59 55 60 60 60 43 39 39 42 48 52 45 38 36 23 26 40 46 38 33 31 36 36 32 34 41 41 34 28 30 40 50 48 46 46 48 55 58 59 53
41 38 37 38 42 47 53 52 45 43 41 37 35 39 33 28 31 30 18 23 40 35 28 33 19 18 21 27 24 22 38 28 32 37 32 40 39 40 39 39 39 45 49 43
30 29 29 41 50 56 61 57 46 40 35 31 26 30 33 31 25 18 14 11 16 17 15 24 23 16 22 13 13 22 25 19 30 33 23 25 32 35 31 32 49 48 44 41
21 21 28 35 45 56 61 65 60 49 42 31 29 32 29 30 33 27 28 28 24 26 19 6 6 16 13 4 8 10 10 14 17 15 22 26 29 28 32 40 46 44 36 38
29 29 33 40 41 41 47 52 58 59 52 44 37 36 33 28 24 31 36 41 41 32 25 26 27 26 22 18 13 9 6 7 5 5 14 22 24 27 28 40 50 44 42 37
29 33 36 37 37 34 30 38 48 55 54 55 54 50 42 32 26 25 29 35 33 32 32 36 26 21 20 16 13 9 4 2 2 7 9 12 21 30 37 46 47 47 41 42
29 29 30 33 33 31 37 29 35 43 50 49 51 57 60 49 41 39 34 26 28 29 31 32 30 26 19 18 13 11 9 4 4 4 9 20 27 28 37 53 49 49 48 41
28 32 33 31 31 32 31 32 26 27 34 43 49 47 50 58 63 58 55 56 55 58 60 57 54 51 50 47 43 37 32 26 22 17 15 13 12 18 24 33 43 39 33 50
31 34 26 20 24 20 21 24 25 28 24 26 32 42 42 42 46 48 51 52 51 50 48 47 47 45 43 43 42 42 41 38 33 27 19 14 14 14 21 26 27 26 40 21
18 17 19 11 12 18 18 12 15 18 22 22 20 19 28 38 35 37 38 36 34 35 37 37 36 34 32 30 26 26 26 26 27 28 29 29 27 27 29 27 19 9 13 26
Wind_Direction_850mb
249 264 282 276 298 319 254 228 200 253 242 0 330 315 318 349 354 359 2 359 359 350 300 262 234 232 225 228 229 226 223 224 229 235 229 228 226 228 231 219 218 219 220 220
266 267 262 260 294 276 274 270 252 259 257 13 322 332 342 2 357 354 356 353 356 353 352 299 262 237 230 227 228 228 225 225 229 231 226 223 222 225 219 215 219 221 222 223
259 223 307 285 228 237 293 41 331 350 343 344 345 341 336 1 358 350 349 351 350 354 355 348 296 271 245 228 228 228 227 226 229 228 224 218 218 219 217 218 220 222 225 228
261 243 237 258 48 47 103 53 21 4 358 334 312 313 314 6 358 355 351 349 347 345 346 352 339 288 268 250 233 228 229 227 227 226 222 217 210 211 217 218 222 224 228 229
255 241 294 4 15 358 359 82 7 335 339 328 322 314 169 342 350 349 347 344 341 337 338 334 346 336 271 257 247 237 228 228 226 222 214 212 211 207 218 227 225 225 227 228
257 262 253 1 337 323 300 234 357 341 330 330 342 350 310 336 342 340 345 345 339 334 329 325 320 336 334 294 257 245 246 233 225 214 210 208 203 198 209 229 226 224 223 225
214 243 283 323 10 334 222 306 329 323 326 316 311 299 314 331 336 341 331 342 338 330 329 332 325 319 323 308 288 297 251 240 232 211 205 202 197 211 219 218 223 222 222 225
58 273 277 21 15 63 294 305 318 328 328 322 316 314 314 320 326 328 328 318 332 334 325 325 322 322 309 305 291 300 263 270 236 224 195 197 204 211 216 216 218 217 219 216
210 242 288 340 307 312 311 316 312 315 312 310 308 306 306 308 311 319 321 320 315 323 330 317 323 316 316 309 312 283 285 280 249 202 193 200 205 210 213 214 215 216 215 214
2 271 307 307 305 307 300 311 305 306 303 299 295 301 306 304 304 307 312 313 319 307 319 326 322 338 0 334 294 288 292 283 205 214 199 203 206 212 214 208 208 211 212 208
269 289 300 293 301 303 309 306 305 309 305 294 295 303 305 306 307 306 308 307 311 312 299 303 305 336 343 2 12 24 15 320 193 183 204 201 204 209 214 213 212 215 216 214
248 291 289 290 298 299 298 302 308 309 309 297 293 296 303 304 304 308 308 307 306 298 299 289 288 286 321 339 9 1 37 312 294 230 208 199 198 199 208 213 216 222 229 234
280 293 294 296 302 303 298 299 297 294 297 293 292 290 295 295 302 306 312 306 310 309 295 287 279 282 280 283 318 342 345 311 282 239 221 211 201 200 204 205 216 221 226 222
306 307 297 302 298 299 301 303 301 294 290 290 286 287 289 291 291 297 301 294 303 304 306 287 276 284 291 286 282 255 264 276 267 256 230 215 207 205 207 203 195 199 211 209
299 300 296 299 302 304 308 302 294 295 291 287 285 285 286 285 287 291 287 278 287 296 299 297 278 268 264 266 262 261 243 247 246 241 236 228 221 212 206 202 197 198 193 196
304 304 306 304 303 309 310 310 305 294 294 299 294 292 287 289 290 291 284 274 275 288 292 294 286 260 251 244 248 249 235 225 233 239 237 230 221 210 210 205 201 200 194 193
306 301 308 305 311 324 326 329 325 316 306 301 308 310 306 296 288 294 292 269 268 279 281 290 279 254 252 248 255 249 235 229 232 239 234 229 222 217 213 210 203 202 200 196
332 329 332 333 327 333 336 333 347 341 326 318 318 309 308 314 313 310 312 299 286 286 262 278 264 252 246 242 253 247 240 232 242 236 231 224 218 214 209 210 209 207 201 194
354 348 353 358 358 355 355 350 344 354 1 354 347 353 327 300 300 305 294 303 292 282 266 261 261 235 231 256 243 243 233 231 239 217 225 226 221 214 213 213 207 198 196 197
11 23 38 29 22 15 10 8 1 0 353 349 358 15 20 14 6 4 7 25 13 346 294 255 249 241 272 244 232 234 236 239 231 213 213 219 209 208 215 211 206 204 204 208
16 13 13 9 7 10 14 14 22 19 18 17 13 16 23 31 30 24 29 29 21 16 4 329 242 204 150 143 229 170 204 223 196 210 202 205 215 222 219 220 213 209 211 197
356 359 351 353 356 4 11 18 23 31 33 33 31 28 27 29 34 39 37 34 42 41 51 61 69 70 74 87 104 101 63 140 162 237 244 231 209 214 223 220 206 196 185 178
348 355 2 9 2 359 359 19 30 31 30 31 33 31 31 34 40 41 42 37 39 45 62 67 73 86 80 91 79 72 96 47 348 230 235 232 235 227 222 208 200 193 181 192
351 3 4 7 12 10 7 11 22 32 35 34 36 40 43 55 59 61 67 61 60 65 68 65 66 73 68 77 69 64 59 59 22 333 283 273 251 234 213 202 191 185 187 199
331 331 335 341 347 357 355 9 10 21 32 38 41 45 49 54 61 70 73 74 75 78 78 77 76 76 78 79 79 81 84 86 87 82 90 106 167 189 190 197 196 198 198 186
327 330 335 340 340 341 346 6 19 16 11 24 39 49 56 61 63 66 70 71 71 69 68 67 66 65 65 66 67 66 67 69 72 75 78 98 115 144 175 177 192 195 164 191
316 327 343 344 346 344 334 349 11 18 25 22 18 37 61 65 69 70 70 66 58 51 45 39 35 33 36 38 39 47 56 56 56 58 66 78 96 111 129 144 154 183 264 283